| time (UTC) | temp F | wind direction | speed MPH | gust MPH | rain 1hr in | rain 24hr in | rain mn in | humidity % | barometer mb |
| 20260831094520 | 50 | 215 | 0.0 | 0.0 | 0.00 | 0.00 | 0.00 | 91 | 1011.8 |
| 20260831093013 | 50 | 215 | 0.0 | 0.0 | 0.00 | 0.00 | 0.00 | 91 | 1011.9 |
| 20260831091511 | 50 | 215 | 0.0 | 0.0 | 0.00 | 0.00 | 0.00 | 91 | 1011.8 |
| 20260831090014 | 50 | 215 | 0.0 | 0.0 | 0.00 | 0.00 | 0.00 | 91 | 1011.8 |
| 20260831084508 | 51 | 215 | 0.0 | 0.0 | 0.00 | 0.00 | 0.00 | 91 | 1011.9 |
| 20260831083007 | 51 | 215 | 0.0 | 0.0 | 0.00 | 0.00 | 0.00 | 91 | 1012.1 |
| 20260831081515 | 51 | 215 | 0.0 | 0.0 | 0.00 | 0.00 | 0.00 | 91 | 1012.0 |
| 20260831080005 | 51 | 215 | 0.0 | 0.0 | 0.00 | 0.00 | 0.00 | 91 | 1012.1 |
| 20260831074515 | 51 | 215 | 0.0 | 0.0 | 0.00 | 0.00 | 0.00 | 91 | 1012.1 |
| 20260831073006 | 51 | 215 | 0.0 | 0.0 | 0.00 | 0.00 | 0.00 | 91 | 1012.2 |
| 20260831071600 | 52 | 215 | 0.0 | 0.0 | 0.00 | 0.00 | 0.00 | 91 | 1012.2 |
| 20260831070059 | 52 | 215 | 0.0 | 0.0 | 0.00 | 0.00 | 0.00 | 91 | 1012.0 |
| 20260831064606 | 52 | 215 | 0.0 | 0.0 | 0.00 | 0.00 | 0.00 | 90 | 1012.1 |
| 20260831063057 | 52 | 215 | 0.0 | 0.0 | 0.00 | 0.00 | 0.00 | 90 | 1012.0 |
| 20260831061556 | 53 | 215 | 0.0 | 0.0 | 0.00 | 0.00 | 0.00 | 90 | 1012.0 |
| 20260831060104 | 53 | 215 | 0.0 | 0.0 | 0.00 | 0.00 | 0.00 | 90 | 1012.0 |
| 20260831054555 | 53 | 215 | 0.0 | 0.0 | 0.00 | 0.00 | 0.00 | 89 | 1011.9 |
| 20260831053055 | 54 | 215 | 0.0 | 1.0 | 0.00 | 0.00 | 0.00 | 89 | 1011.9 |
| 20260831051554 | 54 | 207 | 0.0 | 2.0 | 0.00 | 0.00 | 0.00 | 88 | 1011.9 |
| 20260831050131 | 55 | 209 | 0.0 | 3.0 | 0.00 | 0.00 | 0.00 | 86 | 1011.9 |
| 20260831044554 | 55 | 229 | 0.0 | 1.0 | 0.00 | 0.00 | 0.00 | 85 | 1011.8 |
| 20260831043054 | 56 | 199 | 0.0 | 0.0 | 0.00 | 0.00 | 0.00 | 83 | 1011.7 |
| 20260831041555 | 57 | 196 | 0.0 | 0.0 | 0.00 | 0.00 | 0.00 | 81 | 1011.6 |
| 20260831040054 | 58 | 196 | 0.0 | 0.0 | 0.00 | 0.00 | 0.00 | 80 | 1011.3 |
| 20260831034552 | 58 | 205 | 0.0 | 6.0 | 0.00 | 0.00 | 0.00 | 79 | 1011.2 |
| 20260831033052 | 59 | 197 | 1.0 | 6.0 | 0.00 | 0.00 | 0.00 | 77 | 1011.2 |
| 20260831031554 | 60 | 200 | 0.0 | 4.0 | 0.00 | 0.00 | 0.00 | 75 | 1011.1 |
| 20260831030054 | 61 | 219 | 0.0 | 4.0 | 0.00 | 0.00 | 0.00 | 74 | 1011.0 |
| 20260831024554 | 62 | 184 | 0.0 | 5.0 | 0.00 | 0.00 | 0.00 | 73 | 1011.0 |
| 20260831023050 | 63 | 213 | 1.0 | 8.0 | 0.00 | 0.00 | 0.00 | 70 | 1011.0 |
| 20260831021548 | 65 | 194 | 0.0 | 4.0 | 0.00 | 0.00 | 0.00 | 68 | 1011.0 |
| 20260831020047 | 66 | 196 | 1.0 | 7.0 | 0.00 | 0.00 | 0.00 | 65 | 1011.2 |
| 20260831014550 | 68 | 186 | 0.0 | 3.0 | 0.00 | 0.00 | 0.00 | 63 | 1011.2 |
| 20260831013045 | 69 | 180 | 1.0 | 6.0 | 0.00 | 0.00 | 0.00 | 61 | 1011.3 |
| 20260831011544 | 70 | 174 | 2.0 | 8.0 | 0.00 | 0.00 | 0.00 | 58 | 1011.4 |
| 20260831010043 | 71 | 173 | 2.0 | 6.0 | 0.00 | 0.00 | 0.00 | 56 | 1011.4 |
| 20260831004545 | 73 | 191 | 3.0 | 8.0 | 0.00 | 0.00 | 0.00 | 52 | 1011.4 |
| 20260831003041 | 74 | 180 | 1.0 | 5.0 | 0.00 | 0.00 | 0.00 | 50 | 1011.4 |
| 20260831001540 | 76 | 175 | 2.0 | 8.0 | 0.00 | 0.00 | 0.00 | 48 | 1011.5 |
| 20260831000053 | 77 | 178 | 2.0 | 5.0 | 0.00 | 0.00 | 0.00 | 47 | 1011.7 |
| 20260830234546 | 77 | 153 | 4.0 | 10.0 | 0.00 | 0.00 | 0.00 | 46 | 1011.7 |
| 20260830233053 | 78 | 174 | 3.0 | 8.0 | 0.00 | 0.00 | 0.00 | 45 | 1011.7 |
| 20260830231537 | 79 | 167 | 4.0 | 9.0 | 0.00 | 0.00 | 0.00 | 43 | 1011.8 |
| 20260830230034 | 80 | 199 | 3.0 | 6.0 | 0.00 | 0.00 | 0.00 | 43 | 1011.8 |
| 20260830224533 | 80 | 137 | 2.0 | 9.0 | 0.00 | 0.00 | 0.00 | 44 | 1012.0 |
| 20260830223030 | 79 | 148 | 3.0 | 10.0 | 0.00 | 0.00 | 0.00 | 46 | 1012.1 |
| 20260830221528 | 78 | 197 | 3.0 | 10.0 | 0.00 | 0.00 | 0.00 | 47 | 1012.2 |
| 20260830220043 | 79 | 174 | 2.0 | 10.0 | 0.00 | 0.00 | 0.00 | 47 | 1012.4 |
| 20260830214524 | 78 | 159 | 5.0 | 9.0 | 0.00 | 0.00 | 0.00 | 46 | 1012.6 |
| 20260830213026 | 78 | 284 | 3.0 | 10.0 | 0.00 | 0.00 | 0.00 | 48 | 1012.9 |
| 20260830211527 | 78 | 161 | 4.0 | 9.0 | 0.00 | 0.00 | 0.00 | 49 | 1013.0 |
| 20260830210024 | 78 | 184 | 1.0 | 8.0 | 0.00 | 0.00 | 0.00 | 49 | 1013.1 |
| 20260830204521 | 77 | 144 | 2.0 | 7.0 | 0.00 | 0.00 | 0.00 | 52 | 1013.1 |
| 20260830203020 | 78 | 188 | 4.0 | 10.0 | 0.00 | 0.00 | 0.00 | 50 | 1013.3 |
| 20260830201520 | 77 | 178 | 0.0 | 9.0 | 0.00 | 0.00 | 0.00 | 51 | 1013.4 |
| 20260830200032 | 78 | 194 | 1.0 | 4.0 | 0.00 | 0.00 | 0.00 | 50 | 1013.6 |
| 20260830194515 | 77 | 119 | 0.0 | 6.0 | 0.00 | 0.00 | 0.00 | 53 | 1013.6 |
| 20260830193012 | 76 | 205 | 2.0 | 6.0 | 0.00 | 0.00 | 0.00 | 54 | 1013.8 |
| 20260830191535 | 75 | 268 | 0.0 | 4.0 | 0.00 | 0.00 | 0.00 | 55 | 1013.8 |
| 20260830190006 | 74 | 195 | 0.0 | 5.0 | 0.00 | 0.00 | 0.00 | 56 | 1013.9 |
| 20260830184506 | 74 | 232 | 2.0 | 4.0 | 0.00 | 0.00 | 0.00 | 56 | 1014.0 |
| 20260830183002 | 73 | 82 | 0.0 | 3.0 | 0.00 | 0.00 | 0.00 | 57 | 1014.1 |
| 20260830181558 | 71 | 217 | 0.0 | 4.0 | 0.00 | 0.00 | 0.00 | 61 | 1014.2 |
| 20260830180056 | 69 | 85 | 0.0 | 8.0 | 0.00 | 0.00 | 0.00 | 65 | 1014.3 |
| 20260830174554 | 66 | 108 | 0.0 | 3.0 | 0.00 | 0.00 | 0.00 | 68 | 1014.3 |
| 20260830173049 | 64 | 165 | 0.0 | 1.0 | 0.00 | 0.00 | 0.00 | 73 | 1014.3 |
| 20260830171541 | 61 | 166 | 0.0 | 3.0 | 0.00 | 0.00 | 0.00 | 76 | 1014.3 |
| 20260830170037 | 60 | 111 | 0.0 | 0.0 | 0.00 | 0.00 | 0.00 | 80 | 1014.3 |
| 20260830164533 | 59 | 123 | 0.0 | 2.0 | 0.00 | 0.00 | 0.00 | 83 | 1014.4 |
| 20260830163038 | 57 | 176 | 0.0 | 2.0 | 0.00 | 0.00 | 0.00 | 86 | 1014.3 |
| 20260830161525 | 56 | 148 | 0.0 | 3.0 | 0.00 | 0.00 | 0.00 | 88 | 1014.4 |
| 20260830160034 | 55 | 148 | 0.0 | 0.0 | 0.00 | 0.00 | 0.00 | 90 | 1014.4 |
| 20260830154526 | 53 | 148 | 0.0 | 1.0 | 0.00 | 0.00 | 0.00 | 90 | 1014.5 |
| 20260830153024 | 51 | 240 | 0.0 | 0.0 | 0.00 | 0.00 | 0.00 | 91 | 1014.5 |
| 20260830151522 | 51 | 240 | 0.0 | 0.0 | 0.00 | 0.00 | 0.00 | 91 | 1014.4 |
| 20260830150024 | 50 | 240 | 0.0 | 0.0 | 0.00 | 0.00 | 0.00 | 91 | 1014.2 |
| 20260830144524 | 50 | 240 | 0.0 | 0.0 | 0.00 | 0.00 | 0.00 | 91 | 1014.3 |
| 20260830143019 | 49 | 240 | 0.0 | 0.0 | 0.00 | 0.00 | 0.00 | 91 | 1014.1 |
| 20260830141517 | 49 | 240 | 0.0 | 0.0 | 0.00 | 0.00 | 0.00 | 91 | 1014.0 |
| 20260830140018 | 49 | 240 | 0.0 | 0.0 | 0.00 | 0.00 | 0.00 | 91 | 1013.7 |
| 20260830134514 | 49 | 240 | 0.0 | 0.0 | 0.00 | 0.00 | 0.00 | 91 | 1013.5 |
| 20260830133011 | 50 | 240 | 0.0 | 0.0 | 0.00 | 0.00 | 0.00 | 91 | 1013.4 |
| 20260830131515 | 50 | 240 | 0.0 | 0.0 | 0.00 | 0.00 | 0.00 | 91 | 1013.3 |
| 20260830130007 | 50 | 240 | 0.0 | 0.0 | 0.00 | 0.00 | 0.00 | 90 | 1013.2 |
| 20260830124506 | 51 | 240 | 0.0 | 0.0 | 0.00 | 0.00 | 0.00 | 91 | 1013.1 |
| 20260830123004 | 51 | 240 | 0.0 | 0.0 | 0.00 | 0.00 | 0.00 | 90 | 1013.0 |
| 20260830121505 | 51 | 240 | 0.0 | 0.0 | 0.00 | 0.00 | 0.00 | 90 | 1013.0 |
| 20260830120001 | 51 | 240 | 0.0 | 0.0 | 0.00 | 0.00 | 0.00 | 90 | 1013.0 |
| 20260830114600 | 51 | 240 | 0.0 | 0.0 | 0.00 | 0.00 | 0.00 | 89 | 1012.9 |
| 20260830113059 | 51 | 240 | 0.0 | 0.0 | 0.00 | 0.00 | 0.00 | 89 | 1013.0 |
| 20260830111558 | 52 | 240 | 0.0 | 0.0 | 0.00 | 0.00 | 0.00 | 89 | 1013.0 |
| 20260830110059 | 52 | 240 | 0.0 | 0.0 | 0.00 | 0.00 | 0.00 | 88 | 1013.0 |
| 20260830104557 | 52 | 240 | 0.0 | 0.0 | 0.00 | 0.00 | 0.00 | 88 | 1013.0 |
| 20260830103057 | 52 | 240 | 0.0 | 0.0 | 0.00 | 0.00 | 0.00 | 87 | 1012.9 |
| 20260830101559 | 52 | 240 | 0.0 | 0.0 | 0.00 | 0.00 | 0.00 | 87 | 1012.9 |
| 20260830100053 | 52 | 240 | 0.0 | 0.0 | 0.00 | 0.00 | 0.00 | 85 | 1012.9 |